Other Public Products
Issued by NWS Grand Forks, ND

Current Version | Previous Version | Text Only | Print | Product List | Glossary On
Versions: 1 2 3 4 5 6 7 8 9 10 11 12 13 14 15 16 17 18 19 20 21 22 23 24 25 26 27 28 29 30 31 32 33 34 35 36 37 38 39 40 41 42 43 44 45 46 47 48 49 50
000
FPUS83 KFGF 161531
OPUFGF
PRAIRIE TO PINES WEATHER ROUNDUP
NATIONAL WEATHER SERVICE EASTERN NORTH DAKOTA/GRAND FORKS ND
900 AM CST SAT DEC 16 2017

 **SATELLITE DATA USED TO AUGMENT SKY COVER AT AUTOMATED STATIONS**
 *****  WEATHER ACROSS EASTERN NORTH DAKOTA  *****

CITY           SKY/WX    TMP DP  RH WIND       PRES   REMARKS
GRAND FORKS    CLOUDY    22  18  85 CALM      29.82R
GRND FORKS AFB CLOUDY    21  18  86 CALM      29.83R
GRND FORKS NWS   N/A     21 N/A N/A MISG        N/A
BUXTON           N/A     23  23  99 CALM        N/A
DEVILS LAKE    CLOUDY    24  23  96 W3        29.79R FOG
FARGO          CLOUDY    27  24  89 S5        29.82R WCI  22
WAHPETON ARPT  CLOUDY    28  23  80 E3        29.83R
$$

 *****  WEATHER ACROSS CENTRAL AND WESTERN NORTH DAKOTA  *****

CITY           SKY/WX    TMP DP  RH WIND       PRES   REMARKS
JAMESTOWN      CLOUDY    36  33  89 NW12      29.80R
BISMARCK       FAIR      34  31  88 W8        29.87R
MINOT          CLOUDY    36  30  79 W13       29.83R
MINOT AFB      CLOUDY    34  29  84 NW12      29.80R
GARRISON         N/A     33  30  88 W13       29.83R WCI  24
WILLISTON        N/A     25  20  81 W6        29.89R WCI  18
DICKINSON      FAIR      27  24  89 NW9       29.86R WCI  18
HETTINGER      FAIR      26  24  92 NW5       29.90R WCI  20
$$

 *****  OTHER OBSERVATIONS NORTHEAST NORTH DAKOTA  *****

CITY           SKY/WX    TMP DP  RH WIND       PRES   REMARKS
WALHALLA       FAIR      18  18 100 S5        29.82R FOG     WCI  11
LANGDON        CLOUDY    25  25 100 W10       29.79R WCI  15
CAVALIER       CLOUDY    18  18 100 SE6       29.83R WCI   9
GRAFTON        CLOUDY    19  18  93 SE6       29.85R WCI  11
CANDO          PTSUNNY   23  23 100 N6        29.82R FOG     WCI  16
FORT TOTTEN      N/A     32  32 100 NW3       29.95
ROLLA          CLOUDY    28  27  93 NW21      29.79R WCI  15
RUGBY          CLOUDY    32  32 100 NW12      29.81R WCI  23
 ***** THE ABOVE OBSERVATIONS ARE NON NWS ARE NOT QUALITY
        CONTROLLED AND MAY MIS-REPORT RAIN FOR SNOW...
$$

 *****  OTHER OBSERVATIONS SOUTHEAST NORTH DAKOTA *****

CITY           SKY/WX    TMP DP  RH WIND       PRES   REMARKS
COOPERSTOWN    CLOUDY    27  27 100 SW6       29.81R FOG     WCI  20
VALLEY CITY    CLOUDY    28  28 100 NW8       29.83R FOG     WCI  20
OAKES            N/A     34  34 100 CALM      29.82R
GWINNER          N/A     28  28 100 CALM      29.82R FOG
BUFFALO          N/A     26  25  96 W3          N/A
WYNDMERE       NOT AVBL
 ***** THE ABOVE OBSERVATIONS ARE NON NWS ARE NOT QUALITY
       CONTROLLED AND MAY MIS-REPORT RAIN FOR SNOW...
$$

  *****  WEATHER ACROSS NORTHERN MINNESOTA  *****

CITY           SKY/WX    TMP DP  RH WIND       PRES   REMARKS
FLAG ISLAND    LGT SNOW   1  -2  85 E6        29.89R WCI -10
WARROAD        LGT SNOW   9   3  78 E12       29.86R WCI  -6
ROSEAU         CLOUDY    10   5  79 E8        29.85R WCI  -1
HALLOCK        CLOUDY    18  14  86 SE6       29.84R WCI   9
THF RVR FALLS  CLOUDY    17  14  88 SE8       29.84R WCI   7
HALSTAD        NOT AVBL
FOSSTON        CLOUDY    19  18  93 SE5       29.83R WCI  13
BAUDETTE       LGT SNOW   6   1  80 E12       29.87R WCI  -9
WASKISH        CLOUDY    10   7  85 E9        29.85R WCI  -2
CROOKSTON      CLOUDY    23  19  86 CALM      29.86R
$$
  *****  WEATHER ACROSS CENTRAL AND WEST MINNESOTA  *****

CITY           SKY/WX    TMP DP  RH WIND       PRES   REMARKS
BEMIDJI        CLOUDY    16  14  90 SE7       29.84R WCI   6
PARK RAPIDS    CLOUDY    19  15  84 CALM      29.81R
WADENA         CLOUDY    19  18  93 E5        29.81R WCI  13
DETROIT LAKES  CLOUDY    23  21  93 SE8       29.82R FOG     WCI  14
MOORHEAD       CLOUDY    25  21  86 CALM      29.85R
FERGUS FALLS   FAIR      23  21  93 E3        29.85R
ELBOW LAKE     PTSUNNY   24  22  93 NE5       29.82R FOG     WCI  18
MORRIS MN      MOCLDY    27  25  93 E7        29.80R FOG     WCI  19
STAPLES        CLOUDY    19  16  86 E6        29.81S WCI  11
WHEATON        FAIR      27  25  93 CALM      29.84R
$$
  *****  WEATHER ELSEWHERE ACROSS MINNESOTA  *****

CITY           SKY/WX    TMP DP  RH WIND       PRES   REMARKS
DULUTH         CLOUDY    17  12  80 E14       29.86R WCI   3
INTRNTL FALLS  LGT SNOW   1  -4  79 E9        29.93R WCI -14
ELY            CLOUDY     3   0  85 NE3       29.90R
CLOQUET        CLOUDY    18   7  62 E8        29.87R WCI   7
BRAINERD       CLOUDY    21  15  78 NE6       29.84R HAZE    WCI  13
HIBBING        CLOUDY    15  12  88 E5        29.85R WCI   8
ALEXANDRIA     CLOUDY    23  21  92 E6        29.80R FOG     WCI  16
SAINT CLOUD    CLOUDY    22  19  89 E9        29.82R WCI  12
MINNEAPOLIS    CLOUDY    25  24  96 E6        29.82R WCI  18
$$

  *****  WEATHER ACROSS SOUTH DAKOTA  *****

CITY           SKY/WX    TMP DP  RH WIND       PRES   REMARKS
SIOUX FALLS    MOCLDY    33  27  78 N7        29.79R
BROOKINGS      CLOUDY    30  27  88 NW5       29.79R
WATERTOWN      CLOUDY    34  32  92 NW8       29.78R
HURON          CLOUDY    34  29  82 NW7       29.83R
SISSETON         N/A     34  30  85 NW9       29.79R
ABERDEEN       CLOUDY    37  35  92 W7        29.83R
MITCHELL       FAIR      33  26  75 N10       29.83R WCI  25
PIERRE         FAIR      36  31  82 NW13      29.86R
MOBRIDGE       FAIR      36  31  82 NW10      29.84R
RAPID CITY     CLOUDY    35  27  72 N17       29.89R WCI  25
$$

  *****  SOME WEATHER IN NEARBY STATES *****

CITY           SKY/WX    TMP DP  RH WIND       PRES   REMARKS
GLASGOW MT     CLOUDY    22  20  92 W6        29.95R WCI  14
GREAT FALLS MT LGT SNOW  29  27  92 NE8       29.97R FOG     WCI  21
CHEYENNE WY    CLOUDY    37   9  31 NE14      29.82R
SCOTTSBLUFF NE FAIR      38  17  42 NE8       29.84R
OMAHA NE       FAIR      33  23  66 SE3       29.80R
DES MOINES IA  FAIR      37  26  64 SW9       29.79R
DAVENPORT IA   FAIR      37  25  61 SW12      29.85R
CHICAGO IL     FAIR      36  24  62 SW6       29.87R
EAU CLAIRE WI  CLOUDY    21  17  84 E9        29.84R WCI  11
LA CROSSE WI   FAIR      31  26  82 E5        29.82R
$$

  *****  SOME NATIONAL WEATHER *****

CITY           SKY/WX    TMP DP  RH WIND       PRES   REMARKS
LA GUARDIA NY  PTSUNNY   33  17  51 SW17G23   30.07R WCI  22
RALEIGH NC     FAIR      39  24  55 W6        30.28R
ATLANTA GA     PTSUNNY   36  26  67 NW8       30.30R
NEW ORLEANS LA PTSUNNY   47  37  68 E7        30.29S
OKLAHOMA CITY  FAIR      41  24  51 S17       30.01R
ALBUQUERQUE NM FAIR      27  15  61 CALM      29.94F
SALT LAKE CITY CLOUDY    32  29  88 CALM      29.89F FOG
LOS ANGELES CA FAIR      54  48  80 E9        29.74F
BOISE ID       CLOUDY    23  21  92 W7        30.10R WCI  15
SEATTLE WA     MOCLDY    38  37  97 SE7       30.29F
$$

*** WEATHER ACROSS MANITOBA...SASKATCHEWAN AND ONTARIO ***
                ***ONTARIO***

CITY           SKY/WX    TMP DP  RH WIND       PRES   REMARKS
GERALDTON      PTCLDY   -26 -31  75 SW3       30.06R
THUNDER BAY    CLOUDY    -8 -13  77 W3        30.08R
SIOUX LOOKOUT  MOCLDY   -13 -18  77 VRB2      29.99R
TORONTO        FLURRIES  25  18  74 NW13      29.93R WCI  13
BIG TROUT LK   CLEAR    -20 -26  76 W3        30.06R
PICKLE LAKE    PTCLDY   -27 -33  75 S3        30.02R
DRYDEN         CLOUDY    -8 -13  77 E7        29.95R WCI -22
KENORA         CLOUDY    -2  -8  78 SE10      29.89R WCI -19
$$
                *** MANITOBA***

CITY           SKY/WX    TMP DP  RH WIND       PRES   REMARKS
BRANDON        PTCLDY    10   7  85 SW3       29.79R
DAUPHIN        CLOUDY    14  10  85 S5        29.79R WCI   6
ISLAND LAKE    PTCLDY   -17 -24  70 SE9       30.00R WCI -36
PILOT MOUND      N/A     23  21  93 NW10        N/A  WCI  12
THE PAS        FLURRIES   5   0  78 SE8       29.77R WCI  -8
THOMPSON       MOCLDY   -11 -17  77 VRB2      29.88S
WINNIPEG       FRZ DRZL  10   7  85 SE8       29.86R DRFTSNOWWCI  -1
LYNN LAKE      CLOUDY    -6  -9  84 S5        29.75R WCI -17
CHURCHILL      PTCLDY   -27 -33  75 SW6       30.00S WCI -44
GILLAM         MOCLDY   -20 -26  76 SE2       30.00R
$$
                ***SASKATCHEWAN***

CITY           SKY/WX    TMP DP  RH WIND       PRES   REMARKS
ESTEVAN        PTCLDY    25  23  93 NW10      29.83R WCI  15
KINDERSLEY     PTCLDY    19  14  79 W12G17    29.86R WCI   7
LLOYDMINSTER   CLOUDY    27  21  80 W15G21    29.77R WCI  15
PRINCE ALBERT  MOCLDY     3   0  85 W3        29.71R
REGINA         PTCLDY    23  19  86 W13       29.82R WCI  11
YORKTON        PTCLDY    21  21 100 SW9       29.74R WCI  11
N. BATTLEFORD  MOCLDY    25  18  74 W7        29.78R WC



USA.gov is the U.S. government's official web portal to all federal, state and local government web resources and services.